Back to catalog

STARLINK-2446

AliveCommunicationsVLEO
NORAD 47844·PAYLOAD·🇺🇸 United States

Launched Mar 11, 2021 from Cape Canaveral Space Force Station

Loading…

Next Passes (next 24 hours)

TLE

FreshSource: CelesTrak SupGP

Epoch: Sep 14, 2026, 13:45 UTC

1 47844C 21018BK  26257.57340278  .00040010  00000+0  10225-2 0  2570
2 47844  53.1556  84.4493 0004633 130.5503 338.8346 15.38855901    10

Track STARLINK-2446 in real time with AllMySat

Download on the App Store